CW9181 Weather Reports


time (UTC)temp
C
wind
direction
speed
KPH
gust
KPH
rain 1hr
cm
rain 24hr
cm
rain mn
cm
humidity
%
barometer
mb
20260904030024 20 287 4.8 14.5 0.00 0.00 0.00 70 1011.1
20260904025027 20 280 4.8 6.4 0.00 0.00 0.00 72 1011.2
20260904024026 21 278 0.0 6.4 0.00 0.00 0.00 72 1011.4
20260904023026 21 255 3.2 9.7 0.00 0.00 0.00 72 1011.4
20260904022028 21 260 4.8 8.0 0.00 0.00 0.00 71 1011.4
20260904021009 21 249 1.6 8.0 0.00 0.00 0.00 71 1011.3
20260904020012 21 236 4.8 12.9 0.00 0.00 0.00 70 1011.4
20260904015028 21 270 0.0 9.7 0.00 0.00 0.00 69 1011.4
20260904014011 21 260 6.4 14.5 0.00 0.00 0.00 69 1011.4
20260904013010 21 238 8.0 17.7 0.00 0.00 0.00 68 1011.6
20260904012010 21 289 8.0 19.3 0.00 0.00 0.00 67 1011.6
20260904011016 21 265 8.0 14.5 0.00 0.00 0.00 67 1011.6
20260904010018 22 254 8.0 19.3 0.00 0.00 0.00 67 1011.7
20260904005018 22 248 6.4 17.7 0.00 0.00 0.00 66 1011.8
20260904004017 22 189 9.7 19.3 0.00 0.00 0.00 65 1011.9
20260904003018 22 251 8.0 19.3 0.00 0.00 0.00 65 1011.8
20260904002041 22 254 8.0 17.7 0.00 0.00 0.00 64 1011.6
20260904001043 22 241 8.0 19.3 0.00 0.00 0.00 64 1011.7
20260904000046 22 260 8.0 19.3 0.00 0.00 0.00 64 1011.7
20260903235024 23 256 6.4 16.1 0.00 0.00 0.00 64 1011.8
20260903234025 23 208 4.8 20.9 0.00 0.00 0.00 63 1011.8
20260903233028 23 254 8.0 19.3 0.00 0.00 0.00 63 1011.7
20260903232025 23 207 8.0 14.5 0.00 0.00 0.00 62 1011.8
20260903231026 23 265 11.3 19.3 0.00 0.00 0.00 62 1012.1
20260903230028 23 248 8.0 19.3 0.00 0.00 0.00 62 1012.1
20260903225010 23 236 8.0 25.7 0.00 0.00 0.00 61 1012.0
20260903224023 23 245 4.8 17.7 0.00 0.00 0.00 61 1012.1
20260903223025 23 199 11.3 17.7 0.00 0.00 0.00 60 1012.2
20260903222040 23 201 4.8 16.1 0.00 0.00 0.00 60 1012.4
20260903221023 23 203 6.4 17.7 0.00 0.00 0.00 61 1012.4
20260903220023 23 216 6.4 17.7 0.00 0.00 0.00 61 1012.8
20260903215027 23 235 4.8 17.7 0.00 0.00 0.00 60 1012.8
20260903214027 23 205 3.2 16.1 0.00 0.00 0.00 61 1012.8
20260903213009 23 249 6.4 19.3 0.00 0.00 0.00 61 1013.1
20260903212011 23 245 8.0 17.7 0.00 0.00 0.00 62 1013.1
20260903211010 23 224 8.0 14.5 0.00 0.00 0.00 62 1013.1
20260903210016 22 252 11.3 19.3 0.00 0.00 0.00 62 1013.2
20260903205017 22 198 11.3 20.9 0.00 0.00 0.00 62 1013.1
20260903204011 23 178 8.0 14.5 0.00 0.00 0.00 61 1013.2
20260903203015 23 324 6.4 17.7 0.00 0.00 0.00 62 1013.2
20260903202019 23 247 4.8 16.1 0.00 0.00 0.00 61 1013.3
20260903201036 23 237 6.4 16.1 0.00 0.00 0.00 60 1013.4
20260903200018 23 193 6.4 16.1 0.00 0.00 0.00 60 1013.4
20260903195017 23 178 4.8 12.9 0.00 0.00 0.00 62 1013.6
20260903194022 23 245 8.0 16.1 0.00 0.00 0.00 60 1013.8
20260903193039 23 162 6.4 17.7 0.00 0.00 0.00 60 1013.8
20260903192019 23 230 4.8 14.5 0.00 0.00 0.00 62 1013.9
20260903191018 23 234 4.8 14.5 0.00 0.00 0.00 62 1014.0
20260903190018 23 247 6.4 16.1 0.00 0.00 0.00 63 1014.3
20260903185020 23 174 4.8 14.5 0.00 0.00 0.00 62 1014.3
20260903184037 22 123 8.0 16.1 0.00 0.00 0.00 63 1014.2
20260903183020 22 172 11.3 17.7 0.00 0.00 0.00 63 1014.5
20260903182021 22 179 8.0 12.9 0.00 0.00 0.00 65 1014.5
20260903181040 22 209 6.4 14.5 0.00 0.00 0.00 65 1014.6
20260903180024 21 193 4.8 12.9 0.00 0.00 0.00 67 1014.7
20260903175025 21 228 6.4 17.7 0.00 0.00 0.00 67 1014.8
20260903174008 21 214 6.4 12.9 0.00 0.00 0.00 68 1014.8
20260903173022 20 140 3.2 14.5 0.00 0.00 0.00 71 1014.8
20260903172021 19 177 6.4 11.3 0.00 0.00 0.00 72 1014.9
20260903171008 19 176 6.4 12.9 0.00 0.00 0.00 74 1015.0
20260903170025 18 163 3.2 9.7 0.00 0.00 0.00 75 1015.0
20260903165027 18 174 4.8 16.1 0.00 0.00 0.00 75 1015.0
20260903164033 18 158 4.8 12.9 0.00 0.00 0.00 76 1015.0
20260903163029 18 162 6.4 12.9 0.00 0.00 0.00 76 1015.1
20260903162016 18 157 6.4 14.5 0.00 0.00 0.00 76 1015.2
20260903161040 17 174 4.8 12.9 0.00 0.00 0.00 77 1015.2
20260903160018 17 147 4.8 14.5 0.00 0.00 0.00 77 1015.1
20260903155022 17 161 3.2 14.5 0.00 0.00 0.00 77 1015.3
20260903154008 17 138 3.2 12.9 0.00 0.00 0.00 77 1015.4
20260903153031 17 146 3.2 11.3 0.00 0.00 0.00 77 1015.4
20260903152010 17 171 6.4 12.9 0.00 0.00 0.00 75 1015.3
20260903151029 16 150 8.0 12.9 0.00 0.00 0.00 79 1015.3
20260903150010 16 170 4.8 8.0 0.00 0.00 0.00 81 1015.3
20260903145036 16 135 4.8 9.7 0.00 0.00 0.00 81 1015.3
20260903144040 16 116 6.4 14.5 0.00 0.00 0.00 81 1015.3
20260903143039 15 117 4.8 9.7 0.00 0.00 0.00 82 1015.2
20260903142043 15 136 3.2 11.3 0.00 0.00 0.00 82 1015.2
20260903141020 15 132 4.8 11.3 0.00 0.00 0.00 82 1015.0
20260903140021 15 112 6.4 11.3 0.00 0.00 0.00 83 1014.9
20260903135024 15 135 3.2 11.3 0.00 0.00 0.00 82 1014.9
20260903134044 15 133 6.4 11.3 0.00 0.00 0.00 82 1014.9
20260903133009 15 118 4.8 9.7 0.00 0.00 0.00 82 1014.9
20260903132033 15 126 6.4 9.7 0.00 0.00 0.00 82 1015.0
20260903131014 15 123 4.8 11.3 0.00 0.00 0.00 82 1015.0
20260903130012 15 155 4.8 11.3 0.00 0.00 0.00 82 1015.1
20260903125017 15 150 3.2 14.5 0.00 0.00 0.00 81 1015.1
20260903124022 15 116 8.0 11.3 0.00 0.00 0.00 81 1015.1
20260903123022 16 132 3.2 14.5 0.00 0.00 0.00 81 1015.0
20260903122027 16 149 3.2 11.3 0.00 0.00 0.00 81 1015.0
20260903121008 16 101 4.8 12.9 0.00 0.00 0.00 81 1015.0
20260903120027 16 135 3.2 9.7 0.00 0.00 0.00 81 1015.1
20260903115013 16 136 6.4 12.9 0.00 0.00 0.00 81 1015.1
20260903114016 16 142 8.0 14.5 0.00 0.00 0.00 81 1015.3
20260903113021 16 173 6.4 16.1 0.00 0.00 0.00 81 1015.4
20260903112023 16 143 3.2 11.3 0.00 0.00 0.00 81 1015.5
20260903111007 16 133 4.8 12.9 0.00 0.00 0.00 81 1015.5
20260903110009 16 143 8.0 14.5 0.00 0.00 0.00 81 1015.4
20260903105013 16 153 8.0 16.1 0.00 0.00 0.00 81 1015.5
20260903104016 16 143 6.4 11.3 0.00 0.00 0.00 81 1015.5
20260903103020 16 128 6.4 14.5 0.00 0.00 0.00 81 1015.4
20260903102018 16 143 4.8 14.5 0.00 0.00 0.00 81 1015.4
20260903101020 16 169 6.4 12.9 0.00 0.00 0.00 81 1015.5
20260903100023 16 168 6.4 12.9 0.00 0.00 0.00 80 1015.4
20260903095027 16 127 8.0 14.5 0.00 0.00 0.00 80 1015.5
20260903094024 16 110 6.4 12.9 0.00 0.00 0.00 79 1015.6
20260903093011 16 120 8.0 14.5 0.00 0.00 0.00 79 1015.6
20260903092019 16 154 6.4 11.3 0.00 0.00 0.00 78 1015.7
20260903091021 16 153 4.8 11.3 0.00 0.00 0.00 77 1015.8
20260903090027 16 166 4.8 12.9 0.00 0.00 0.00 77 1015.7
20260903085013 16 169 6.4 12.9 0.00 0.00 0.00 76 1015.7
20260903084037 16 150 4.8 12.9 0.00 0.00 0.00 75 1015.7
20260903083018 16 142 8.0 14.5 0.00 0.00 0.00 74 1015.7
20260903082041 16 152 4.8 12.9 0.00 0.00 0.00 74 1015.8
20260903081019 16 177 4.8 12.9 0.00 0.00 0.00 73 1015.6
20260903080023 17 172 4.8 8.0 0.00 0.00 0.00 71 1015.6
20260903075025 17 138 4.8 9.7 0.00 0.00 0.00 70 1015.7
20260903074007 17 124 4.8 12.9 0.00 0.00 0.00 69 1015.5
20260903073025 17 153 6.4 16.1 0.00 0.00 0.00 69 1015.4
20260903072025 17 151 4.8 11.3 0.00 0.00 0.00 68 1015.5
20260903071008 17 170 4.8 11.3 0.00 0.00 0.00 67 1015.5
20260903070024 18 143 3.2 8.0 0.00 0.00 0.00 67 1015.5
20260903065017 18 161 3.2 8.0 0.00 0.00 0.00 66 1015.5
20260903064018 18 146 4.8 6.4 0.00 0.00 0.00 66 1015.5
20260903063040 18 186 3.2 6.4 0.00 0.00 0.00 65 1015.5
20260903062019 18 157 0.0 6.4 0.00 0.00 0.00 64 1015.4
20260903061021 18 162 3.2 6.4 0.00 0.00 0.00 63 1015.4
20260903060021 18 172 3.2 11.3 0.00 0.00 0.00 63 1015.5
20260903055038 18 166 3.2 8.0 0.00 0.00 0.00 63 1015.5
20260903054019 19 185 3.2 6.4 0.00 0.00 0.00 63 1015.5
20260903053034 19 197 0.0 4.8 0.00 0.00 0.00 62 1015.6
20260903052016 20 138 1.6 4.8 0.00 0.00 0.00 61 1015.5
20260903051017 20 132 3.2 4.8 0.00 0.00 0.00 60 1015.5
20260903050017 20 197 1.6 4.8 0.00 0.00 0.00 59 1015.5
20260903045013 20 130 1.6 4.8 0.00 0.00 0.00 58 1015.6
20260903044016 20 133 3.2 4.8 0.00 0.00 0.00 57 1015.5
20260903043020 20 144 3.2 6.4 0.00 0.00 0.00 57 1015.5
20260903042018 20 170 3.2 4.8 0.00 0.00 0.00 56 1015.5
20260903041018 21 199 1.6 4.8 0.00 0.00 0.00 55 1015.4
20260903040018 21 180 1.6 4.8 0.00 0.00 0.00 54 1015.1
20260903035015 21 241 1.6 6.4 0.00 0.00 0.00 54 1015.0
20260903034013 21 233 1.6 8.0 0.00 0.00 0.00 53 1014.8
20260903033017 21 209 3.2 8.0 0.00 0.00 0.00 54 1014.8
20260903032012 21 260 3.2 8.0 0.00 0.00 0.00 54 1014.8
20260903031012 22 203 1.6 4.8 0.00 0.00 0.00 54 1014.6